KUZGTU 1 (RS47S)

Last updated on Sun Jun 21 2026 00:03:20 GMT+0000 (Coordinated Universal Time)

1 57217U 23091AV 26171.43523323 .00009496 00000+0 32966-3 0 9995 2 57217 97.5059 235.9484 0012235 88.0892 272.1750 15.29921794164871
UTC large
Height (km)
Speed (km/s)
/
Latitude / Longitude
Inclination (degrees)
Orbital Period (minutes)
Azimuth
Elevation
Range (km)
Doppler Factor

Next 0 passes for location: London (51.5072 / 0.1276)

No passes found over London.
KUZGTU 1 (RS47S)